Weather History for KIIY - March, 2013

Change the Weather History Date:

Tuesday, March 19, 2013

  Actual Average (KDBN) Record (KDBN)
Temperature  
Mean Temperature 52 °F -  
Max Temperature 60 °F 69 °F 90 °F (1945)
Min Temperature 44 °F 42 °F 28 °F (1967)
Degree Days  
Heating Degree Days 13    
Growing Degree Days 2 (Base 50)    
Moisture  
Dew Point 39 °F    
Average Humidity 74    
Maximum Humidity 100    
Minimum Humidity 20    
Precipitation  
Precipitation 0.00 in - - ()
Sea Level Pressure  
Sea Level Pressure 29.96 in    
Wind  
Wind Speed 4 mph (NW)    
Max Wind Speed 15 mph    
Max Gust Speed 17 mph    
Visibility 5 miles    
Events Fog , Thunderstorm    
Averages and records for this station are not official NWS values.
T = Trace of Precipitation, MM = Missing Value Source: NWS Daily Summary

Daily Weather History Graph

Daily Weather History Graph

Search for Another Location

Airport or City:

Trip Planner

Search our weather history database for the weather conditions in past years. The results will help you decide how hot, cold, wet, or windy it might be!

Date:

Astronomy

Mar. 19, 2013 Rise Set
Actual Time 7:35 AM EDT 7:42 PM EDT
Civil Twilight 7:11 AM EDT 8:07 PM EDT
Nautical Twilight 6:42 AM EDT 8:36 PM EDT
Astronomical Twilight 6:12 AM EDT 9:05 PM EDT
Moon 12:40 PM EDT (3/19) 2:13 AM EDT (3/19)
Length of Visible Light 12h 56m
Length of Day
12h 06m
Waxing Crescent, 49% of the Moon is Illuminated
Mar 19
Waxing Crescent
Mar 19
First Quarter
Mar 27
Full
Apr 3
Last Quarter
Apr 10
New

Hourly Weather History & Observations

Time (EDT) Temp. Windchill Dew Point Humidity Pressure Visibility Wind Dir Wind Speed Gust Speed Precip Events Conditions
12:15 AM 46.4 °F - 44.6 °F 93% 29.90 in 7.0 mi Calm Calm - N/A   Clear
12:35 AM 44.6 °F - 44.6 °F 100% 29.90 in 7.0 mi Calm Calm - N/A   Clear
12:55 AM 44.6 °F - 44.6 °F 100% 29.90 in 7.0 mi Calm Calm - N/A   Clear
1:15 AM 44.6 °F 42.2 °F 44.6 °F 100% 29.90 in 4.0 mi NW 4.6 mph - N/A   Clear
1:35 AM 44.6 °F 43.1 °F 44.6 °F 100% 29.90 in 5.0 mi NNW 3.5 mph - N/A   Scattered Clouds
1:55 AM 44.6 °F 43.1 °F 44.6 °F 100% 29.89 in 1.2 mi NNW 3.5 mph - N/A   Overcast
2:15 AM 44.6 °F - 44.6 °F 100% 29.88 in 0.5 mi Calm Calm - N/A Fog Fog
2:35 AM 44.6 °F 43.1 °F 42.8 °F 93% 29.88 in 0.8 mi NW 3.5 mph - N/A   Overcast
2:55 AM 44.6 °F 43.1 °F 42.8 °F 93% 29.89 in 1.0 mi North 3.5 mph - N/A Thunderstorm Overcast
3:15 AM 44.6 °F 41.4 °F 44.6 °F 100% 29.89 in 2.0 mi North 5.8 mph - N/A   Overcast
3:35 AM 44.6 °F - 44.6 °F 100% 29.88 in 1.2 mi Calm Calm - N/A   Overcast
3:55 AM 44.6 °F - 44.6 °F 100% 29.88 in 0.8 mi Calm Calm - N/A   Overcast
4:15 AM 44.6 °F 43.1 °F 44.6 °F 100% 29.90 in 0.5 mi West 3.5 mph - N/A Fog Fog
4:35 AM 44.6 °F - 44.6 °F 100% 29.90 in 0.5 mi Calm Calm - N/A Fog Fog
4:55 AM 44.6 °F 41.4 °F 44.6 °F 100% 29.91 in 0.5 mi NW 5.8 mph - N/A Fog Fog
5:15 AM 44.6 °F 43.1 °F 44.6 °F 100% 29.89 in 0.5 mi NNW 3.5 mph - N/A Fog Fog
5:35 AM 44.6 °F 43.1 °F 44.6 °F 100% 29.89 in 0.8 mi WNW 3.5 mph - N/A   Overcast
5:55 AM 44.6 °F 41.4 °F 44.6 °F 100% 29.91 in 0.5 mi NW 5.8 mph - N/A Fog Fog
6:15 AM 46.4 °F 44.3 °F 44.6 °F 93% 29.93 in 0.8 mi WNW 4.6 mph - N/A   Overcast
6:35 AM 46.4 °F - 44.6 °F 93% 29.92 in 0.8 mi Calm Calm - N/A   Overcast
6:55 AM 46.4 °F 45.2 °F 44.6 °F 93% 29.93 in 0.8 mi West 3.5 mph - N/A   Overcast
7:15 AM 46.4 °F 44.3 °F 44.6 °F 93% 29.94 in 1.0 mi West 4.6 mph - N/A   Overcast
7:35 AM 46.4 °F 44.3 °F 44.6 °F 93% 29.94 in 1.0 mi West 4.6 mph - N/A   Overcast
7:55 AM 46.4 °F 42.4 °F 44.6 °F 93% 29.96 in 0.8 mi West 8.1 mph - N/A   Overcast
8:15 AM 46.4 °F 41.1 °F 46.4 °F 100% 29.96 in 2.0 mi WNW 11.5 mph - N/A   Overcast
8:35 AM 46.4 °F 41.5 °F 46.4 °F 100% 29.97 in 2.5 mi WNW 10.4 mph 16.1 mph N/A   Overcast
8:55 AM 46.4 °F 41.9 °F 46.4 °F 100% 29.98 in 3.0 mi WNW 9.2 mph - N/A   Overcast
9:15 AM 48.2 °F - 46.4 °F 93% 29.99 in 4.0 mi WNW 9.2 mph - N/A   Scattered Clouds
9:35 AM 50.0 °F - 50.0 °F 100% 30.00 in 4.0 mi NW 6.9 mph - N/A   Clear
9:55 AM 51.8 °F - 51.8 °F 100% 30.00 in 7.0 mi NW 10.4 mph - N/A   Clear
10:15 AM 53.6 °F - 46.4 °F 77% 30.00 in 7.0 mi NW 5.8 mph - N/A   Clear
10:35 AM 55.4 °F - 44.6 °F 67% 30.00 in 10.0 mi NW 6.9 mph - N/A   Clear
10:55 AM 59.0 °F - 42.8 °F 55% 30.00 in 10.0 mi WNW 6.9 mph - N/A   Clear
11:15 AM 59.0 °F - 35.6 °F 42% 30.00 in 10.0 mi WNW 11.5 mph - N/A   Clear
11:35 AM 60.8 °F - 32.0 °F 34% 30.00 in 10.0 mi WNW 10.4 mph 17.3 mph N/A   Clear
11:55 AM 60.8 °F - 30.2 °F 31% 30.00 in 10.0 mi NNW 10.4 mph 16.1 mph N/A   Clear
12:15 PM 60.8 °F - 28.4 °F 29% 30.01 in 10.0 mi WNW 15.0 mph - N/A   Clear
7:55 PM 60.8 °F - 19.4 °F 20% 30.02 in 7.0 mi NW 3.5 mph - N/A   Clear
8:15 PM 59.0 °F - 26.6 °F 29% 30.03 in 10.0 mi WNW 4.6 mph - N/A   Clear
8:35 PM 55.4 °F - 24.8 °F 31% 30.04 in 10.0 mi NW 4.6 mph - N/A   Clear
8:55 PM 55.4 °F - 24.8 °F 31% 30.04 in 10.0 mi NW 5.8 mph - N/A   Clear
9:15 PM 55.4 °F - 26.6 °F 33% 30.04 in 10.0 mi NW 4.6 mph - N/A   Clear
9:35 PM 53.6 °F - 28.4 °F 38% 30.04 in 10.0 mi WNW 5.8 mph - N/A   Clear
9:55 PM 55.4 °F - 23.0 °F 29% 30.04 in 10.0 mi NW 5.8 mph - N/A   Clear
10:15 PM 53.6 °F - 23.0 °F 30% 30.04 in 10.0 mi WNW 4.6 mph - N/A   Clear
10:35 PM 53.6 °F - 23.0 °F 30% 30.05 in 10.0 mi NW 5.8 mph - N/A   Clear
10:55 PM 53.6 °F - 26.6 °F 35% 30.05 in 10.0 mi NW 5.8 mph - N/A   Clear
11:15 PM 53.6 °F - 28.4 °F 38% 30.06 in 10.0 mi NW 5.8 mph - N/A   Clear
11:35 PM 53.6 °F - 26.6 °F 35% 30.06 in 10.0 mi NW 5.8 mph - N/A   Clear
11:55 PM 53.6 °F - 24.8 °F 33% 30.06 in 10.0 mi NNW 4.6 mph - N/A   Clear